{"data":{"norad_id":32785,"epoch":"2026-09-20T05:14:56.995008Z","epoch_age_seconds":38643,"freshness":"FRESH","line1":"1 32785U 08021C   26263.21871522  .00003200  00000+0  19982-3 0  9999","line2":"2 32785  97.8388 246.7226 0010384  69.6600 290.5743 15.10202048999530","mean_motion":15.10202048,"eccentricity":0.0010384,"inclination_deg":97.8388,"raan_deg":246.7226,"arg_perigee_deg":69.66,"mean_anomaly_deg":290.5743,"bstar":0.00019982,"rev_number":99953,"period_min":95.351479751139,"perigee_km":528.40407530737,"apogee_km":542.76248958996,"semimajor_km":6913.7202824487,"source":"CELESTRAK","updated_at":"2026-09-20T09:00:47.986572Z"}}